This demonstration page uses our WeatherBlox Daily Observations layout. Learn more.

Left ArrowRight Arrow

39.08367, -84.50855

Hourly Observations for December 13, 2016

Temp ( °F °C ) Dew Point ( °F °C ) Humidity (%) Winds ( mph kmh ) Pressure ( in mb ) Visibility ( mi km ) Precip ( " mm )
12:53 am 00:53 Clear 31 -0.6 27 -2.8 85 85 Calm 30.16 1021 9 14 0.00 0.00
1:53 am 01:53 Clear 31 -0.6 27 -2.8 85 85 Calm 30.14 1021 9 14 0.00 0.00
2:53 am 02:53 Mostly Cloudy 30 -1.1 28 -2.2 92 92 WSW 5 7 30.17 1022 7 11 0.00 0.00
3:53 am 03:53 Cloudy 31 -0.6 29 -1.7 92 92 S 3 6 30.18 1022 8 13 0.00 0.00
4:53 am 04:53 Cloudy 32 0 28 -2.2 85 85 W 6 9 30.20 1023 8 13 0.00 0.00
5:53 am 05:53 Cloudy 32 0 29 -1.7 88 88 S 3 6 30.18 1022 8 13 0.00 0.00
6:53 am 06:53 Cloudy 33 0.6 29 -1.7 85 85 Calm 30.17 1022 8 13 0.00 0.00
7:37 am 07:37 Cloudy with Light Snow 33 0.6 29 -1.7 85 85 Calm 30.21 1023 3 4 0.00 0.03
7:44 am 07:44 Cloudy with Light Snow 32 0 30 -1 93 93 Calm 30.21 1023 2 2 0.00 0.00
7:53 am 07:53 Cloudy with Light Snow 32 0 30 -1.1 92 92 ENE 5 7 30.17 1022 2 2 0.02 0.51
8:20 am 08:20 Cloudy with Light Wintry Mix 32 0 30 -1 93 93 NE 5 7 30.18 1022 1 2 0.00 0.00
8:53 am 08:53 Cloudy with Light Freezing Rain 32 0 31 -0.6 96 96 Calm 30.16 1021 1 2 0.08 2.03
9:03 am 09:03 Cloudy with Freezing Rain 32 0 32 0 100 100 Calm 30.18 1022 1 2 0.00 0.00
9:53 am 09:53 Cloudy with Light Rain 32 0 32 0 100 100 Calm 30.16 1021 1 2 0.08 2.03
10:05 am 10:05 Cloudy with Light Rain 33 0.6 33 0.6 100 100 SSW 3 6 30.18 1022 1 2 0.00 0.03
10:13 am 10:13 Cloudy with Light Rain 33 0.6 33 0.6 100 100 SSW 3 6 30.18 1022 1 2 0.00 0.03
10:53 am 10:53 Cloudy with Mist and Fog 34 1.1 33 0.6 97 97 NNE 5 7 30.13 1020 2 3 0.01 0.25
11:53 am 11:53 Cloudy with Light Snow 35 1.7 34 1.1 96 96 N 5 7 30.14 1021 2 3 0.00 0.03
12:11 pm 12:11 Cloudy with Light Rain 35 1.7 33 0.6 93 93 N 7 11 30.12 1020 3 4 0.00 0.03
12:53 pm 12:53 Cloudy with Light Snow 34 1.1 32 0 92 92 N 5 7 30.14 1021 3 4 0.00 0.03
1:49 pm 13:49 Cloudy with Light Snow 34 1 32 0 93 93 N 5 7 30.12 1020 2 2 0.01 0.25
1:53 pm 13:53 Cloudy with Light Snow 34 1.1 32 0 92 92 N 5 7 30.13 1020 2 2 0.01 0.25
2:36 pm 14:36 Cloudy with Light Snow 34 1 34 1 100 100 NNE 7 11 30.09 1019 2 3 0.00 0.00
2:53 pm 14:53 Cloudy with Light Snow 34 1.1 33 0.6 97 97 N 5 7 30.12 1020 2 3 0.01 0.25
3:33 pm 15:33 Cloudy with Mist and Fog 34 1.1 32 0 92 92 N 3 6 30.12 1020 2 3 0.00 0.03
3:53 pm 15:53 Cloudy with Light Snow 34 1.1 32 0 92 92 Calm 30.12 1020 2 3 0.00 0.03
4:24 pm 16:24 Cloudy with Light Snow 34 1 32 0 93 93 Calm 30.12 1020 2 2 0.00 0.00
4:53 pm 16:53 Cloudy with Mist and Fog 34 1 34 1 100 100 Calm 30.12 1020 3 5 0.00 0.00
5:53 pm 17:53 Cloudy with Mist and Fog 34 1.1 33 0.6 97 97 WNW 3 6 30.15 1021 5 8 0.00 0.00
6:32 pm 18:32 Cloudy 34 1 32 0 93 93 NNW 3 6 30.18 1022 8 13 0.00 0.00
6:53 pm 18:53 Cloudy 34 1 32 0 93 93 NNW 3 6 30.18 1022 8 13 0.00 0.00
7:53 pm 19:53 Cloudy 34 1.1 31 -0.6 89 89 NW 6 9 30.17 1022 8 13 0.00 0.00
8:42 pm 20:42 Cloudy 34 1.1 31 -0.6 89 89 NNW 7 11 30.21 1023 8 13 0.00 0.00
8:53 pm 20:53 Cloudy 34 1.1 31 -0.6 89 89 N 7 11 30.18 1022 8 13 0.00 0.00
9:37 pm 21:37 Cloudy 32 0 28 -2.2 85 85 N 10 17 30.21 1023 7 11 0.00 0.00
9:53 pm 21:53 Cloudy 31 -0.6 28 -2.2 89 89 N 12 19 30.19 1023 7 11 0.00 0.00
10:53 pm 22:53 Cloudy 30 -1.1 26 -3.3 85 85 N 9 15 30.23 1024 8 13 0.00 0.00
11:53 pm 23:53 Mostly Cloudy 27 -2.8 23 -5 85 85 NNW 7 11 30.25 1024 7 11 0.00 0.00

Powered by AerisWeather